Regional Weather Roundup
Issued by NWS Mobile, AL

Home | Current Version | Previous Version | Text Only | Print | Product List | Glossary On
Versions: 1 2 3 4 5 6 7 8 9 10 11 12 13 14 15 16 17 18 19 20 21 22 23 24 25 26 27 28 29 30 31 32 33 34 35 36 37 38 39 40 41 42 43 44 45 46 47 48 49 50
000
ASUS44 KMOB 292310
RWRMOB
REGIONAL WEATHER ROUNDUP
NATIONAL WEATHER SERVICE MOBILE AL
600 PM CDT FRI AUG 29 2014

NOTE: "FAIR" INDICATES FEW OR NO CLOUDS BELOW 12,000 FEET WITH NO
      SIGNIFICANT WEATHER AND/OR OBSTRUCTIONS TO VISIBILITY.

  * THESE STATIONS ARE PART OF THE UNIVERSITY OF SOUTH ALABAMA
    MESONET AND ARE NOT UNDER NWS OR FAA QUALITY CONTROL.

ALZ061>064-300000-
COASTAL ALABAMA

CITY           SKY/WX    TMP DP  RH WIND       PRES   REMARKS
MOBILE REG APT CLOUDY    81  73  76 S8        30.00S
BROOKLEY FIELD CLOUDY    82  78  88 S5        30.00S
USA CAMPUS*      N/A     82  75  78 CALM      29.98R
DOG RIVER*       N/A     81  75  83 S5        30.00R


CITY           SKY/WX    TMP DP  RH WIND       PRES   REMARKS
MOUNT VERNON*    N/A     82  73  74 CALM      29.98R
SARALAND*      NOT AVBL
BAY MINETTE*   NOT AVBL
LOXLEY*          N/A     81  75  83 S6        29.99R
ROBERTSDALE*     N/A     79  75  89 CALM      29.98S
FAIRHOPE*        N/A     77  75  94 SE6       29.98S
ELBERTA*         N/A     79  66  65 S3        29.99S
FOLEY*         NOT AVBL
GRAND BAY*       N/A     79  75  89 CALM      29.98R
DAUPHIN ISLND* NOT AVBL
BON SCOUR NWR* NOT AVBL
GULF SHORES    TSTM      79  77  94 S6        30.00R

$$

ALZ051>060-300000-
INTERIOR SOUTHWEST AND SOUTH CENTRAL ALABAMA

CITY           SKY/WX    TMP DP  RH WIND       PRES   REMARKS
GREENVILLE     CLOUDY    90  67  46 SE3       29.98S
EVERGREEN      CLOUDY    92  70  48 SW3       29.98R HX  97
CASTLEBERRY*   NOT AVBL
ATMORE*          N/A     86  73  66 S8        30.00R
DIXIE*         NOT AVBL
ANDALUSIA/OPP  CLOUDY    91  70  49 SW7       29.98R HX  96
ANDALUSIA*       N/A     86  70  58 S9        29.96R
FLORALA APT    CLOUDY    85  72  65 SW12      30.01R
FLORALA*         N/A     82  72  69 CALM      29.96S

$$

FLZ001>006-300000-
WESTERN FLORIDA PANHANDLE

CITY           SKY/WX    TMP DP  RH WIND       PRES   REMARKS
PENSACOLA      CLOUDY    77  76  96 S16       29.99S
NAS PENSACOLA  TSTM      77  75  93 S15       29.99R FOG
MILTON         LGT RAIN  81  75  82 S12       30.00R
WHTNG S FIELD  LGT RAIN  81  75  82 S13       30.00R


CITY           SKY/WX    TMP DP  RH WIND       PRES   REMARKS
WALNUT HILL*   NOT AVBL
JAY*           NOT AVBL
DUKE FIELD     CLOUDY    84  76  76 S8        29.99S
CRESTVIEW      CLOUDY    84  74  71 S6        30.01R
VALPARAISO     PTSUNNY   85  76  74 S7        29.99S
DESTIN         CLOUDY    87  76  69 S8        29.98F HX  97

$$

MSZ076-079-300000-
INTERIOR SOUTHEAST MISSISSIPPI

CITY           SKY/WX    TMP DP  RH WIND       PRES   REMARKS
LEAKESVILLE*   NOT AVBL
AGRICOLA*      NOT AVBL

$$

MARINE OBSERVATIONS

STATION/POSITION TIME  TEMP    WIND        PRES    WAVE
                       AIR SEA DIR/SP/G            HT/PER
                 (UTC) (F)     (DEG/KT/KT) (MB)    (FT/S)
PASCAGOULA       2300   79      40/  2/  3 1015.2R
PETIT BOIS ISLND 2300   80      50/  7/  8 1015.4F
GRAND BAY        2200   80     190/  9     1016.0S
KATRINA CUT      2200   81     240/  6     1015.9F
CEDAR POINT      2200   80     220/  5     1015.6F
E DAUPHIN ISLAND 2200   81      CALM  /  1 1015.4R
MIDDLE BAY LIGHT 2200   83     190/  5     1015.2R
USCG MOBILE BAY  2300   82 85  220/  4/  5 1014.4F
STATE DOCKS      2300   83 85              1015.2F
MEAHER PARK      2200   84     180/ 13     1014.9R
WEEKS BAY        2200   83                   N/A
FORT MORGAN      2300   82     160/  1/  2 1015.2R
12 S ORANGE BCH  2300   80 85  250/ 10/ 12 1015.9R   3/ 6
PENSACOLA BAY    2300   81 86  170/ 14/ 22 1015.5F
64 S DAUPHIN ISL 2223   77 85  130/  4/  6 1015.4F

$$

SELECTED LOCATIONS ACROSS THE REGION

CITY           SKY/WX    TMP DP  RH WIND       PRES   REMARKS
NEW ORLEANS    CLOUDY    80  75  84 SE8       29.95F
GULFPORT       LGT RAIN  77  75  93 NE6       29.96F
PASCAGOULA AP  CLOUDY    77  76  96 E3        29.98F
PASCAGOULA*      N/A     79  77  94 CALM      29.98F
HATTIESBURG    CLOUDY    77  74  90 SW5       29.99S
LAUREL         CLOUDY   N/A N/A N/A CALM      29.99F
MERIDIAN       CLOUDY    90  67  46 S7        29.97S
JACKSON        PTSUNNY   89  66  46 SE9       29.95S
MONTGOMERY     MOSUNNY   92  66  42 E6        29.97F
TROY           MOSUNNY   92  66  42 CALM      29.98S
KINSTON*       NOT AVBL
GENEVA*          N/A     81  72  74 S5        30.01R
ASHFORD*         N/A     86  70  58 S9        29.96R
DOTHAN         PTSUNNY   81  68  64 S7        30.04R
PANAMA CITY    CLOUDY    84  75  74 E6        29.98S

$$



USA.gov is the U.S. government's official web portal to all federal, state and local government web resources and services.